Regional Weather Roundup
Issued by NWS

Home | Current Version | Previous Version | Graphics & Text | Print | Product List | Glossary On
Versions: 1 2 3 4 5 6 7 8 9 10 11 12 13 14 15 16 17 18 19 20 21 22 23 24 25 26 27 28 29 30 31 32 33 34 35 36 37 38 39 40 41 42 43 44 45 46 47 48 49 50
000
ASUS43 KMKX 011100
RWRWI

WISCONSIN REGIONAL WEATHER ROUNDUP
NATIONAL WEATHER SERVICE MILWAUKEE/SULLIVAN WI
600 AM CDT SUN MAY 01 2016

NOTE: "FAIR" INDICATES FEW OR NO CLOUDS BELOW 12,000 FEET WITH NO
SIGNIFICANT WEATHER AND/OR OBSTRUCTIONS TO VISIBILITY.

WIZ001-002-006>008-014>016-023>028-011200-
NORTHWEST WISCONSIN

CITY           SKY/WX    TMP DP  RH WIND       PRES   REMARKS
SUPERIOR ARPT  CLOUDY    36  31  81 E5        30.24R WCI  32
ASHLAND        CLOUDY    39  35  86 NE15      30.22S WCI  31
HAYWARD        CLOUDY    36  33  89 NE9       30.18R WCI  29
SIREN          PTCLDY    38  32  81 NE9       30.18F WCI  31
CUMBERLAND     PTCLDY    36  32  87 N7        30.14F WCI  30
RICE LAKE      PTCLDY    39  33  79 N9        30.16S WCI  33
CHETEK         PTCLDY    41  34  76 NE5       30.14S
LADYSMITH      CLOUDY    38  34  82 N8        30.15S WCI  33
EAU CLAIRE     NOT AVBL
MENOMONIE      CLOUDY    43  32  64 N6        30.12S
NEW RICHMOND   CLOUDY    40  32  74 NE8       30.14S WCI  34
OSCEOLA        CLOUDY    40  33  77 NE8       30.18S WCI  34
$$

WIZ003>005-009-010-017-018-011200-
NORTH CENTRAL WISCONSIN

CITY           SKY/WX    TMP DP  RH WIND       PRES   REMARKS
MANITOWISH WTR CLOUDY    36  36 100 N6        30.14S WCI  31
ARBOR VITAE    MOCLDY    37  34  90 N5        30.13S WCI  33
WOODRUFF       MOCLDY    37  34  90 N5        30.13S WCI  33
RHINELANDER    CLOUDY    36  32  85 VRB5      30.12S WCI  32
EAGLE RIVER    PTCLDY    34  33  96 N7        30.12S WCI  28
LAND O LAKES   MOCLDY    36  35  96 N6        30.14S WCI  31
PHILLIPS       CLOUDY    36  33  90 NE9       30.13S WCI  29
TOMAHAWK       MOCLDY    36  32  86 CALM      30.12S
MEDFORD        CLOUDY    38  34  83 NE10      30.09F WCI  32
MERRILL        CLOUDY    39  34  81 N3        30.11S
$$

WIZ029-030-035-036-043>047-011200-
CENTRAL WISCONSIN

CITY           SKY/WX    TMP DP  RH WIND       PRES   REMARKS
WAUSAU         CLOUDY    44  33  65 N6        30.08S
MOSINEE        CLOUDY    43  34  70 N7        30.09S
MARSHFIELD     CLOUDY    43  32  65 NE9       30.07S
STEVENS POINT  CLOUDY    41  31  68 N5        30.08S
WAUPACA        CLOUDY    44  35  70 N7        30.07S
WAUTOMA        CLOUDY    42  35  76 N10       30.05F
WISC RAPIDS    CLOUDY    44  31  60 NE7       30.08S
CAMP DOUGLAS   NOT AVBL
$$

WIZ011>013-019>022-031-037>040-048>050-011200-
NORTHEAST WISCONSIN

CITY           SKY/WX    TMP DP  RH WIND       PRES   REMARKS
ANTIGO         CLOUDY    39  33  79 CALM      30.09S
SHAWANO        CLOUDY    46  35  66 NE10      30.09S
OCONTO         CLOUDY    42  35  75 N6        30.09S
STURGEON BAY   CLOUDY    43  34  70 NE6       30.11R
GREEN BAY      LGT RAIN  43  37  79 NE13      30.07S
MANITOWOC      NOT AVBL
APPLETON       CLOUDY    43  34  70 N13       30.04F
CLINTONVILLE   CLOUDY    43  32  65 N5        30.08S
OSHKOSH        CLOUDY    44  36  73 N13       30.03F
$$

WIZ032>034-041-042-053>061-011200-
SOUTHWEST WISCONSIN

CITY           SKY/WX    TMP DP  RH WIND       PRES   REMARKS
LA CROSSE      CLOUDY    46  38  73 N7        30.06S
SPARTA         CLOUDY    44  36  75 NE7       30.06F
VIROQUA        CLOUDY    42  37  82 NE13      30.03R
BOSCOBEL       CLOUDY    46  38  73 NE7       30.02S
PRAIRIE DU CHI CLOUDY    45  37  72 CALM      30.01S
PLATTEVILLE    CLOUDY    43  42  96 NE14      29.98R
$$

WIZ056-057-062-063-064-067-068-011200-
SOUTH CENTRAL WISCONSIN

CITY           SKY/WX    TMP DP  RH WIND       PRES   REMARKS
REEDSBURG      CLOUDY    42  37  80 NE7       30.02F
BARABOO/DELLS  CLOUDY    42  36  79 NE9       30.02S
LONE ROCK      NOT AVBL
MINERAL POINT  LGT RAIN  43  43 100 N12       29.98S
MADISON        DRIZZLE   42  40  92 NE12G21   30.01R FOG
MIDDLETON      CLOUDY    43  41  93 NE12      30.00S
WATERTOWN      CLOUDY    42  42 100 NE10      30.00R
MONROE         CLOUDY    41  41 100 NE16G24   29.97R
JANESVILLE     CLOUDY    45  45 100 NE9       29.97R FOG
$$

WIZ051-052-058>065-066-070>072-011200-
SOUTHEAST WISCONSIN

CITY           SKY/WX    TMP DP  RH WIND       PRES   REMARKS
MILWAUKEE      LGT RAIN  42  40  92 N15G23    29.99R FOG
WAUKESHA       RAIN      39  39 100 NE9       29.99S FOG     WCI  33
MILWAUKEE/TIMM LGT RAIN  41  37  87 NE14      30.00S
RACINE         LGT RAIN  42  40  92 N14G20    30.00R FOG
BURLINGTON     CLOUDY    42  41  99 NE12      29.98R FOG
KENOSHA        LGT RAIN  42  41  96 NE14      29.97R FOG
FOND DU LAC    CLOUDY    44  38  79 NE13      30.04R
SHEBOYGAN      CLOUDY    42  37  82 N8        30.03S
WEST BEND      CLOUDY    41  39  93 N9        30.01S FOG
JUNEAU         CLOUDY    40  38  93 N13       30.02S WCI  33
$$

LSZ147-162-011200-
LAKE SUPERIOR

STATION/POSITION TIME  TEMP    WIND        PRES    WAVE
                       AIR SEA DIR/SP/G            HT/PER
                 (UTC) (F)     (DEG/KT/KT) (MB)    (FT/S)
W MID LAKE BUOY  0950   38 37   30/ 14/ 16 1024.1R   2/ 4
DEVILS ISLAND    1000   39      30/ 14/ 16 1024.3S
PORT WING        0940   34     100/  2/  4 1023.7S
SAXON HARBOR     1000   39      50/ 11/ 14 1022.4
$$

LMZ867-665-643>646-011200-
LAKE MICHIGAN

STATION/POSITION TIME  TEMP    WIND        PRES    WAVE
                       AIR SEA DIR/SP/G            HT/PER
                 (UTC) (F)     (DEG/KT/KT) (MB)    (FT/S)
CHAMBERS ISLAND  1000   41     360/ 12/ 13 1019.3R
N MID LAKE BUOY  0950   40 39   30/ 12/ 14 1018.1F   1/ 3
NORTHPORT PIER   1000   41     290/  6/  8 1019.0R
ALGOMA LAKESHORE 1015           10/ 14/ 18   N/A
KEWAUNEE LAKESHO 1000   42      20/ 13/ 17 1017.3R
SHEBOYGAN LAKESH 1000   42      10/ 15/ 17 1017.5R
PORT WASHINGTON  1000   42      10/  9/ 13 1016.9S
S MID LAKE BUOY  0950   41 40   40/ 14/ 16 1014.1R   2/ 4
KENOSHA   LAKESH 1000   42      20/ 18/ 21 1014.6R
$$

TC  - TEMPERATURE IN CELSIUS
VSB - VISIBILITY IN STATUTE MILES
WCI - WIND CHILL INDEX
HX  - HEAT INDEX





USA.gov is the U.S. government's official web portal to all federal, state and local government web resources and services.